Location: Ahausen
(50.4985°N, 8.2722°E)
Time: 19:15:19
(UTC+00:00)

SPOT 1/Viking Rocket - Pass Details

Date: 18 September 2020
Orbit: 777 x 794 km, 98.5° (Epoch: 21 October)

Event Time Altitude Azimuth Distance (km) Brightness Sun altitude
Exits shadow 21:14:24 44° 280° (W) 1,075 4.4 -31.5°
Drops below altitude 10° 21:18:51 10° 335° (NNW) 2,352 6.8 -31.9°
Sets 21:21:17 0° 341° (NNW) 3,282 7.8 -32.2°
